Simultaneous Nadir Overpasses (SNOs) Predictions

Prediction of SNOs between NOAA-19 and NPP Satellite Orbit:

Table of predicted SNOs for the next 14.0 days since TLE Epoch: 7/4/2014
Index Date (NOAA-19) Time (NOAA-19) Lat,Lon (NOAA-19) SZA (NOAA-19 ) Date (NPP) Time (NPP) Lat,Lon (NPP) SZA (NPP ) Distance(km) Time Diff (sec)
1 07/11/2014 17:30:01 81.02,-136.64 63.07 07/11/2014 17:31:09 81.02,-136.61 63.02 0.55 68
2 07/11/2014 18:21:05 -81.01, 31.04 117.00 07/11/2014 18:21:53 -81.01, 31.11 117.04 1.32 48
3 07/11/2014 19:12:03 81.01,-161.57 62.99 07/11/2014 19:12:38 81.01,-161.60 62.98 0.64 35
4 07/11/2014 20:03:08 -81.01, 5.74 117.02 07/11/2014 20:03:23 -81.01, 5.75 117.03 0.18 15
5 07/11/2014 20:54:06 81.00, 173.13 62.97 07/11/2014 20:54:08 81.01, 173.03 62.99 1.77 2
6 07/11/2014 21:45:10 -80.99, -19.19 117.09 07/11/2014 21:44:52 -80.99, -19.25 117.08 1.03 18
7 07/11/2014 22:36:08 80.99, 148.20 62.90 07/11/2014 22:35:37 80.99, 148.04 62.94 2.86 31
8 07/11/2014 23:27:12 -80.98, -44.12 117.17 07/11/2014 23:26:21 -80.98, -44.24 117.12 2.19 51




NCC Satellite Simultaneous Nadir Overpasses (SNOs) Prediction Service
